Voltar ao catálogo

COSMOS 1382 DEB

LostHEO
NORAD 27904·DEBRIS·🇷🇺 Russia

Lançado Jun 25, 1982 de Plesetsk Cosmodrome

Loading…

Próximas Passagens (próximas 24 horas)

TLE

ObsoletoSource: Space-Track

Época: Apr 10, 2012, 09:30 UTC

1 27904U 82064F   12101.39645130  .00000729  00000-0  00000+0 0  9995
2 27904  69.0328 209.4828 5373810 105.8188 340.5105  1.98127554 69659

Acompanhe COSMOS 1382 DEB em tempo real com AllMySat

Download on the App Store